N417JT KGTU-KFLY

Flight info

Callsign N417JT
Flight time N/A
Altitude 26000
Route ELOEL3 ELOEL BWD KIRST KVLIP CAUDE LANTT/N0264F160 V81 ACAGU BRESH PUB
Aircraft SF50/L-BDGRSWY/LB2U2

Departure

Time 2026-05-04 21:42
Airport Georgetown Executive Airport at Johnny Gantt Field (KGTU)

Arrival

Time N/A
Airport Meadow Lake Airport (KFLY)
Time Latitude Longitude Altitude Speed Heading
2026-05-04 21:30 30.67863 -97.67660 766 ft 0 kts 74°
2026-05-04 21:37 30.67863 -97.67659 765 ft 1 kts 108°
2026-05-04 21:37 30.67848 -97.67671 766 ft 6 kts 225°
2026-05-04 21:38 30.67805 -97.67717 767 ft 10 kts 224°
2026-05-04 21:38 30.67845 -97.67750 767 ft 10 kts
2026-05-04 21:38 30.67919 -97.67748 766 ft 11 kts
2026-05-04 21:38 30.68004 -97.67740 765 ft 13 kts
2026-05-04 21:39 30.68098 -97.67733 765 ft 13 kts
2026-05-04 21:39 30.68181 -97.67726 768 ft 10 kts
2026-05-04 21:39 30.68242 -97.67722 772 ft 7 kts
2026-05-04 21:39 30.68287 -97.67719 774 ft 6 kts
2026-05-04 21:40 30.68323 -97.67717 775 ft 5 kts
2026-05-04 21:40 30.68366 -97.67713 776 ft 7 kts
2026-05-04 21:40 30.68425 -97.67710 777 ft 9 kts
2026-05-04 21:40 30.68497 -97.67704 779 ft 11 kts
2026-05-04 21:41 30.68568 -97.67700 782 ft 9 kts 346°
2026-05-04 21:41 30.68581 -97.67775 783 ft 12 kts 259°
2026-05-04 21:41 30.68446 -97.67803 778 ft 43 kts 184°
2026-05-04 21:41 30.67934 -97.67818 851 ft 92 kts 176°
2026-05-04 21:42 30.67276 -97.67904 1305 ft 98 kts 188°
2026-05-04 21:42 30.66564 -97.68025 1705 ft 108 kts 184°
2026-05-04 21:42 30.65874 -97.68037 2126 ft 100 kts 193°
2026-05-04 21:42 30.65424 -97.68834 2301 ft 159 kts 261°
2026-05-04 21:43 30.65962 -97.69969 3134 ft 172 kts 326°
2026-05-04 21:43 30.67050 -97.70604 3748 ft 184 kts 329°
2026-05-04 21:43 30.68207 -97.71269 4239 ft 192 kts 329°
2026-05-04 21:43 30.69420 -97.71966 4713 ft 194 kts 327°
2026-05-04 21:44 30.70320 -97.73016 5154 ft 178 kts 284°
2026-05-04 21:44 30.70618 -97.74371 5706 ft 170 kts 278°
2026-05-04 21:44 30.70964 -97.75665 6291 ft 165 kts 285°
2026-05-04 21:44 30.71351 -97.76918 6652 ft 171 kts 287°
2026-05-04 21:45 30.71738 -97.78224 7117 ft 169 kts 287°
2026-05-04 21:45 30.72122 -97.79506 7597 ft 165 kts 287°
2026-05-04 21:45 30.72511 -97.80775 8011 ft 167 kts 287°
2026-05-04 21:45 30.72901 -97.82045 8396 ft 171 kts 288°
2026-05-04 21:46 30.73296 -97.83365 8820 ft 172 kts 288°
2026-05-04 21:46 30.73772 -97.84621 9324 ft 170 kts 300°
2026-05-04 21:46 30.74554 -97.85685 9703 ft 177 kts 314°
2026-05-04 21:46 30.75593 -97.86473 10121 ft 181 kts 329°
2026-05-04 21:47 30.76791 -97.86937 10497 ft 184 kts 337°
2026-05-04 21:47 30.78014 -97.87393 10875 ft 185 kts 335°
2026-05-04 21:47 30.79244 -97.87859 11263 ft 186 kts 335°
2026-05-04 21:47 30.80477 -97.88318 11662 ft 185 kts 335°
2026-05-04 21:48 30.81695 -97.88773 12049 ft 186 kts 335°
2026-05-04 21:48 30.82941 -97.89236 12449 ft 186 kts 335°
2026-05-04 21:48 30.84177 -97.89697 12831 ft 186 kts 334°
2026-05-04 21:48 30.85413 -97.90156 13213 ft 187 kts 334°
2026-05-04 21:49 30.86638 -97.90612 13597 ft 187 kts 334°
2026-05-04 21:49 30.87882 -97.91074 13939 ft 187 kts 334°
2026-05-04 21:49 30.89128 -97.91539 14280 ft 187 kts 334°
2026-05-04 21:49 30.90373 -97.92005 14606 ft 187 kts 332°
2026-05-04 21:50 30.91514 -97.92644 14914 ft 183 kts 324°
2026-05-04 21:50 30.92657 -97.93319 15256 ft 183 kts 326°
2026-05-04 21:50 30.93805 -97.93982 15590 ft 183 kts 326°
2026-05-04 21:50 30.94929 -97.94645 15920 ft 183 kts 325°
2026-05-04 21:51 30.96075 -97.95319 16257 ft 183 kts 325°
2026-05-04 21:51 30.97216 -97.95990 16573 ft 184 kts 325°
2026-05-04 21:51 30.98360 -97.96664 16904 ft 183 kts 325°
2026-05-04 21:51 30.99487 -97.97325 17201 ft 184 kts 326°
2026-05-04 21:52 31.00634 -97.97999 17522 ft 184 kts 325°
2026-05-04 21:52 31.01782 -97.98673 17831 ft 185 kts 325°
2026-05-04 21:52 31.02933 -97.99353 18136 ft 185 kts 325°
2026-05-04 21:52 31.04085 -98.00029 18396 ft 185 kts 325°
2026-05-04 21:53 31.05223 -98.00701 18637 ft 186 kts 324°
2026-05-04 21:53 31.06386 -98.01385 18887 ft 186 kts 324°
2026-05-04 21:53 31.07526 -98.02058 19125 ft 186 kts 324°
2026-05-04 21:53 31.08687 -98.02742 19384 ft 186 kts 323°
2026-05-04 21:54 31.09843 -98.03423 19640 ft 186 kts 323°
2026-05-04 21:54 31.10973 -98.04092 19884 ft 186 kts 323°
2026-05-04 21:54 31.12126 -98.04772 20132 ft 186 kts 323°